Location: Follega
(52.8850°N, 5.7362°E)
Time: 22:17:50
(UTC+00:00)

STARLINK-1236 - Pass Details

Date: 01 October 2020
Orbit: 548 x 551 km, 53.0° (Epoch: 26 October)

Event Time Altitude Azimuth Distance (km) Brightness Sun altitude
Exits shadow 04:48:51 10° 278° (W) 1,806 5.6 -8.4°
Maximum altitude 04:52:35 35° 212° (SSW) 895 4.4 -7.8°
Drops below altitude 10° 04:56:23 10° 146° (SE) 1,824 6.7 -7.3°
Sets 04:58:44 0° 137° (SE) 2,715 7.8 -6.9°
